Flag for U.S.A. Weather past 2 weeks in Atascadero, California, U.S.A.

Now
65 °F

Sunny.


Feels Like: 65 °F
Forecast: 40 / 71 °F
Wind: 6 mph from East

Location: Paso Robles Municipal Airport

Current Time: Mar 5, 2015 at 6:47:08 PM

Latest Report: Mar 5, 2015 at 5:53 PM


Visibility: 10 mi

Pressure: 30.23 "Hg

Humidity: 31%

Dew point: 33 °F

Location of AtascaderoLocation

Historic Weather in Atascadero — Graph

°F

Atascadero temperature yesterday

Maximum temperature yesterday: 71 °F (at 3:53 PM)
Minimum temperature yesterday: 35 °F (at 6:53 AM)
Average temperature yesterday: 52 °F

Past Weeks' High & Low Weather Summary

 TemperatureHumidityPressure
High73 °F (Mar 5, 2:53 PM)97% (Feb 19, 10:53 AM)30.37 "Hg (Feb 19, 10:53 AM)
Low33 °F (Feb 25, 5:53 AM)19% (Mar 5, 3:53 PM)29.75 "Hg (Feb 27, 4:53 PM)
Average50 °F76%30.01 "Hg
* Reported Feb 18 5:53 PM — Mar 5 5:53 PM, Atascadero, Weather by CustomWeather, © 2015

Note: Actual official high and low records may vary slightly from our data, if they occured in-between our weather recording intervals... More about our weather records

Advertising

Atascadero weather history for previous 24 hours

 ConditionsComfort  
Time TempWeatherWind HumidityBarometerVisibility
5:53 PM
Thu, Mar 5
65 °FSunny.6 mph31%30.23 "Hg10 mi
4:53 PM71 °FSunny.10 mph20%30.22 "Hg10 mi
3:53 PM73 °FSunny.10 mph19%30.22 "Hg10 mi
2:53 PM73 °FSunny.13 mph24%30.23 "Hg10 mi
1:53 PM72 °FSunny.12 mph25%30.24 "Hg10 mi
12:53 PM70 °FSunny.6 mph35%30.27 "Hg10 mi
11:53 AM66 °FSunny.5 mph45%30.29 "Hg10 mi
10:53 AM59 °FSunny.No wind56%30.32 "Hg10 mi
9:53 AM54 °FSunny.3 mph64%30.33 "Hg10 mi
8:53 AM48 °FSunny.5 mph74%30.34 "Hg10 mi
7:53 AM42 °FSunny.No wind82%30.32 "Hg10 mi
6:53 AM35 °FSunny.No wind88%30.30 "Hg10 mi
5:53 AM36 °FClear.5 mph89%30.28 "Hg10 mi
4:53 AM37 °FClear.3 mph89%30.26 "Hg10 mi
3:53 AM38 °FClear.5 mph90%30.24 "Hg10 mi
2:53 AM41 °FClear.3 mph86%30.23 "Hg10 mi
1:53 AM41 °FClear.6 mph82%30.23 "Hg10 mi
12:53 AM43 °FClear.No wind82%30.22 "Hg10 mi
11:53 PM
Wed, Mar 4
45 °FClear.5 mph80%30.21 "Hg10 mi
10:53 PM50 °FClear.No wind71%30.22 "Hg10 mi
9:53 PM51 °FClear.3 mph69%30.21 "Hg10 mi
8:53 PM53 °FClear.No wind64%30.19 "Hg10 mi
7:53 PM54 °FClear.No wind64%30.17 "Hg10 mi
6:53 PM59 °FClear.9 mph54%30.14 "Hg10 mi
Weather by CustomWeather, © 2015

See weather overviewHow to use our weather pages